Weather History for Holland, MI

Change the Weather History Date:

Sunday, August 25, 2013

  Actual Average Record
Temperature  
Mean Temperature 74 °F 70 °F  
Max Temperature 86 °F 80 °F 95 °F (1959)
Min Temperature 61 °F 60 °F 42 °F (1977)
Degree Days  
Heating Degree Days 0 0  
Month to date heating degree days 11 0  
Since 1 June heating degree days 53 54  
Since 1 July heating degree days 19 6  
Cooling Degree Days 9 5  
Month to date cooling degree days 108 164  
Year to date cooling degree days 633 587  
Since 1 June cooling degree days 543 545  
Growing Degree Days 24 (Base 50)    
Moisture  
Dew Point 60 °F    
Average Humidity 67    
Maximum Humidity 90    
Minimum Humidity 44    
Precipitation  
Precipitation 0.00 in 0.13 in 2.44 in (1982)
Month to date precipitation 1.56 2.85  
Year to date precipitation 27.75 22.49  
Sea Level Pressure  
Sea Level Pressure 30.22 in    
Wind  
Wind Speed 10 mph (SSW)    
Max Wind Speed 21 mph    
Max Gust Speed 26 mph    
Visibility 10 miles    
Events      
T = Trace of Precipitation, MM = Missing Value Source: NWS Daily Summary

Daily Weather History Graph

Daily Weather History Graph

Search for Another Location

Airport:

Trip Planner

Search our weather history database for the weather conditions in past years. The results will help you decide how hot, cold, wet, or windy it might be!

Date:

Astronomy

Aug. 25, 2013 Rise Set
Actual Time 7:01 AM EDT 8:30 PM EDT
Civil Twilight 6:32 AM EDT 8:59 PM EDT
Nautical Twilight 5:56 AM EDT 9:35 PM EDT
Astronomical Twilight 5:18 AM EDT 10:12 PM EDT
Moon 10:52 PM EDT (8/25) 12:11 PM EDT (8/25)
Length of Visible Light 14h 27m
Length of Day
13h 28m
Waning Gibbous, 76% of the Moon is Illuminated
Aug 25
Waning Gibbous
Aug 28
Last Quarter
Sep 5
New
Sep 12
First Quarter
Sep 19
Full

Hourly Weather History & Observations

Time (EDT) Temp. Heat Index Dew Point Humidity Pressure Visibility Wind Dir Wind Speed Gust Speed Precip Events Conditions
12:53 AM 62.1 °F - 57.9 °F 86% 30.25 in 10.0 mi SSE 5.8 mph - N/A   Clear
1:53 AM 61.0 °F - 57.0 °F 87% 30.25 in 10.0 mi SSE 6.9 mph - N/A   Clear
2:53 AM 62.1 °F - 57.9 °F 86% 30.25 in 10.0 mi SSE 6.9 mph - N/A   Clear
3:53 AM 62.1 °F - 57.0 °F 84% 30.25 in 10.0 mi SSE 6.9 mph - N/A   Clear
4:53 AM 62.1 °F - 57.0 °F 84% 30.25 in 10.0 mi SSE 6.9 mph - N/A   Clear
5:53 AM 62.1 °F - 57.0 °F 84% 30.25 in 10.0 mi SSE 6.9 mph - N/A   Clear
6:53 AM 61.0 °F - 57.0 °F 87% 30.25 in 10.0 mi South 6.9 mph - N/A   Clear
7:53 AM 62.1 °F - 57.9 °F 86% 30.27 in 10.0 mi Calm Calm - N/A   Clear
8:53 AM 66.0 °F - 59.0 °F 78% 30.28 in 10.0 mi South 6.9 mph - N/A   Clear
9:53 AM 73.0 °F - 61.0 °F 66% 30.27 in 10.0 mi SSW 6.9 mph - N/A   Clear
10:53 AM 79.0 °F - 60.1 °F 52% 30.26 in 10.0 mi SSW 10.4 mph 19.6 mph N/A   Clear
11:53 AM 80.1 °F 81.1 °F 61.0 °F 52% 30.25 in 10.0 mi SSW 13.8 mph - N/A   Clear
12:53 PM 81.0 °F 81.7 °F 61.0 °F 50% 30.24 in 10.0 mi SSW 13.8 mph 20.7 mph N/A   Mostly Cloudy
1:53 PM 82.9 °F 83.3 °F 61.0 °F 47% 30.22 in 10.0 mi SW 16.1 mph - N/A   Scattered Clouds
2:53 PM 84.9 °F 84.8 °F 60.1 °F 43% 30.21 in 10.0 mi SW 19.6 mph 25.3 mph N/A   Clear
3:53 PM 86.0 °F 86.3 °F 62.1 °F 44% 30.19 in 10.0 mi SW 17.3 mph 24.2 mph N/A   Clear
4:53 PM 86.0 °F 86.3 °F 62.1 °F 44% 30.17 in 10.0 mi SW 15.0 mph 25.3 mph N/A   Clear
5:53 PM 84.9 °F 85.4 °F 62.1 °F 46% 30.15 in 10.0 mi SW 17.3 mph 25.3 mph N/A   Clear
6:53 PM 84.0 °F 84.9 °F 63.0 °F 49% 30.15 in 10.0 mi SW 11.5 mph - N/A   Clear
7:53 PM 81.0 °F 82.2 °F 63.0 °F 54% 30.14 in 10.0 mi SSW 10.4 mph - N/A   Clear
8:53 PM 78.1 °F - 63.0 °F 60% 30.15 in 10.0 mi SSW 6.9 mph - N/A   Clear
9:53 PM 75.9 °F - 64.0 °F 67% 30.15 in 10.0 mi SSW 6.9 mph - N/A   Clear
10:53 PM 75.9 °F - 64.9 °F 69% 30.16 in 10.0 mi SSW 6.9 mph - N/A   Clear
11:53 PM 78.1 °F - 64.0 °F 62% 30.15 in 10.0 mi SW 11.5 mph - N/A   Clear